Location: Cazarilh
(42.9578°N, 0.5819°E)
Time: 00:32:23
(UTC+00:00)

Cosmos 2227 - Pass Details

Date: 11 December 2019
Orbit: 834 x 862 km, 71.0° (Epoch: 20 January)

Event Time Altitude Azimuth Distance (km) Brightness Sun altitude
Exits shadow 05:03:30 39° 225° (SW) 1,276 4.8 -23.8°
Maximum altitude 05:05:40 69° 296° (WNW) 921 4.1 -23.4°
Drops below altitude 10° 05:11:26 10° 20° (NNE) 2,509 6.8 -22.4°
Sets 05:13:56 0° 23° (NNE) 3,450 7.5 -21.9°
